Weather History for Walnut Ridge, AR

Change the Weather History Date:

Monday, January 23, 2012

  Actual Average Record
Temperature  
Mean Temperature 50 °F -  
Max Temperature 57 °F 43 °F 69 °F (2002)
Min Temperature 41 °F 28 °F 8 °F (2003)
Degree Days  
Heating Degree Days 16    
Moisture  
Dew Point 37 °F    
Average Humidity 63    
Maximum Humidity 94    
Minimum Humidity 38    
Precipitation  
Precipitation 0.58 in - - ()
Sea Level Pressure  
Sea Level Pressure 29.88 in    
Wind  
Wind Speed 16 mph (WSW)    
Max Wind Speed 22 mph    
Max Gust Speed 31 mph    
Visibility 10 miles    
Events      
Averages and records for this station are not official NWS values.
T = Trace of Precipitation, MM = Missing Value Source: NWS Daily Summary

Daily Weather History Graph

Daily Weather History Graph

Search for Another Location

Airport:

Trip Planner

Search our weather history database for the weather conditions in past years. The results will help you decide how hot, cold, wet, or windy it might be!

Date:

Astronomy

Jan. 23, 2012 Rise Set
Actual Time 7:10 AM CST 5:20 PM CST
Civil Twilight 6:43 AM CST 5:48 PM CST
Nautical Twilight 6:12 AM CST 6:19 PM CST
Astronomical Twilight 5:41 AM CST 6:49 PM CST
Moon 7:08 AM CST (1/23) 6:05 PM CST (1/23)
Length of Visible Light 11h 04m
Length of Day
10h 09m
New Moon, 0% of the Moon is Illuminated
Jan 23
New Moon
Jan 30
First Quarter
Feb 7
Full
Feb 14
Last Quarter
Feb 21
New

Hourly Weather History & Observations

Time (CST) Temp. Windchill Dew Point Humidity Pressure Visibility Wind Dir Wind Speed Gust Speed Precip Events Conditions
12:15 AM 57.2 °F - 53.6 °F 88% 29.58 in 10.0 mi SSW 18.4 mph - N/A   Clear
12:35 AM 55.4 °F - 53.6 °F 94% 29.58 in 10.0 mi SSW 17.3 mph - N/A   Clear
12:55 AM 57.2 °F - 51.8 °F 82% 29.58 in 10.0 mi SSW 19.6 mph - N/A   Clear
1:15 AM 55.4 °F - 51.8 °F 88% 29.59 in 10.0 mi SSW 19.6 mph - N/A   Clear
1:35 AM 57.2 °F - 51.8 °F 82% 29.60 in 10.0 mi SSW 19.6 mph 27.6 mph N/A   Clear
1:55 AM 55.4 °F - 48.2 °F 77% 29.62 in 10.0 mi SW 21.9 mph - N/A   Clear
2:15 AM 55.4 °F - 46.4 °F 72% 29.64 in 10.0 mi SW 19.6 mph - N/A   Clear
2:35 AM 53.6 °F - 46.4 °F 77% 29.68 in 10.0 mi West 12.7 mph - N/A   Clear
2:55 AM 53.6 °F - 42.8 °F 67% 29.69 in 10.0 mi West 13.8 mph - N/A   Clear
3:15 AM 51.8 °F - 39.2 °F 62% 29.70 in 10.0 mi West 13.8 mph 23.0 mph N/A   Clear
3:35 AM 51.8 °F - 37.4 °F 58% 29.72 in 10.0 mi West 17.3 mph 23.0 mph N/A   Clear
3:55 AM 50.0 °F - 37.4 °F 62% 29.74 in 10.0 mi West 15.0 mph - N/A   Clear
4:15 AM 48.2 °F - 35.6 °F 62% 29.75 in 10.0 mi West 13.8 mph - N/A   Clear
4:35 AM 48.2 °F - 35.6 °F 62% 29.76 in 10.0 mi West 21.9 mph 31.1 mph N/A   Clear
4:55 AM 46.4 °F 39.8 °F 35.6 °F 66% 29.79 in 10.0 mi WSW 16.1 mph 29.9 mph N/A   Clear
5:15 AM 46.4 °F 39.8 °F 35.6 °F 66% 29.81 in 10.0 mi West 16.1 mph 26.5 mph N/A   Partly Cloudy
5:35 AM 44.6 °F 36.9 °F 33.8 °F 66% 29.83 in 10.0 mi West 18.4 mph 26.5 mph N/A   Partly Cloudy
6:15 AM 42.8 °F 35.4 °F 32.0 °F 66% 29.84 in 10.0 mi West 15.0 mph 24.2 mph N/A   Clear
6:35 AM 42.8 °F 34.3 °F 32.0 °F 66% 29.85 in 10.0 mi West 19.6 mph 31.1 mph N/A   Clear
7:15 AM 42.8 °F 34.3 °F 30.2 °F 61% 29.87 in 10.0 mi WNW 19.6 mph 26.5 mph N/A   Clear
7:55 AM 42.8 °F 37.0 °F 33.8 °F 70% 29.90 in 10.0 mi West 10.4 mph 16.1 mph N/A   Overcast
8:15 AM 42.8 °F 36.6 °F 33.8 °F 70% 29.90 in 10.0 mi West 11.5 mph - N/A   Overcast
8:35 AM 44.6 °F 38.1 °F 33.8 °F 66% 29.92 in 10.0 mi West 13.8 mph - N/A   Overcast
8:55 AM 44.6 °F 38.8 °F 33.8 °F 66% 29.93 in 10.0 mi West 11.5 mph - N/A   Scattered Clouds
9:15 AM 44.6 °F 38.8 °F 33.8 °F 66% 29.93 in 10.0 mi West 11.5 mph - N/A   Clear
9:35 AM 44.6 °F 38.4 °F 35.6 °F 71% 29.95 in 10.0 mi SW 12.7 mph 16.1 mph N/A   Clear
9:55 AM 46.4 °F 41.1 °F 35.6 °F 66% 29.97 in 10.0 mi SW 11.5 mph - N/A   Clear
10:15 AM 48.2 °F - 35.6 °F 62% 29.97 in 10.0 mi SW 15.0 mph 19.6 mph N/A   Clear
10:35 AM 48.2 °F - 35.6 °F 62% 29.98 in 10.0 mi SW 17.3 mph - N/A   Clear
11:15 AM 48.2 °F - 33.8 °F 58% 29.97 in 10.0 mi SW 17.3 mph 20.7 mph N/A   Clear
11:35 AM 48.2 °F - 35.6 °F 62% 29.97 in 10.0 mi WSW 16.1 mph - N/A   Clear
11:55 AM 51.8 °F - 33.8 °F 50% 29.96 in 10.0 mi WSW 17.3 mph - N/A   Clear
12:15 PM 50.0 °F - 33.8 °F 54% 29.96 in 10.0 mi SW 17.3 mph 23.0 mph N/A   Clear
12:35 PM 51.8 °F - 33.8 °F 50% 29.95 in 10.0 mi SW 17.3 mph - N/A   Clear
12:55 PM 53.6 °F - 35.6 °F 51% 29.95 in 10.0 mi WSW 16.1 mph - N/A   Clear
1:15 PM 53.6 °F - 33.8 °F 47% 29.95 in 10.0 mi West 17.3 mph - N/A   Clear
1:35 PM 51.8 °F - 32.0 °F 47% 29.95 in 10.0 mi WSW 16.1 mph 23.0 mph N/A   Clear
1:55 PM 53.6 °F - 33.8 °F 47% 29.96 in 10.0 mi WSW 13.8 mph 21.9 mph N/A   Clear
2:35 PM 55.4 °F - 33.8 °F 44% 29.95 in 10.0 mi WSW 12.7 mph 19.6 mph N/A   Clear
2:55 PM 55.4 °F - 32.0 °F 41% 29.95 in 10.0 mi WSW 11.5 mph - N/A   Clear
3:15 PM 55.4 °F - 32.0 °F 41% 29.95 in 10.0 mi WSW 10.4 mph 16.1 mph N/A   Clear
3:35 PM 55.4 °F - 33.8 °F 44% 29.95 in 10.0 mi SW 12.7 mph 17.3 mph N/A   Clear
3:55 PM 57.2 °F - 32.0 °F 38% 29.96 in 10.0 mi SW 11.5 mph - N/A   Clear
4:15 PM 55.4 °F - 30.2 °F 38% 29.96 in 10.0 mi SW 11.5 mph - N/A   Clear
4:35 PM 55.4 °F - 30.2 °F 38% 29.97 in 10.0 mi SW 10.4 mph - N/A   Clear
4:55 PM 53.6 °F - 30.2 °F 41% 29.98 in 10.0 mi SSW 10.4 mph - N/A   Clear
5:15 PM 50.0 °F - 39.2 °F 66% 29.99 in 10.0 mi SSW 12.7 mph - N/A   Clear
5:35 PM 50.0 °F - 37.4 °F 62% 29.99 in 10.0 mi SW 9.2 mph - N/A   Clear
5:55 PM 48.2 °F - 37.4 °F 66% 30.01 in 10.0 mi WSW 4.6 mph - N/A   Clear
6:15 PM 46.4 °F 42.4 °F 37.4 °F 71% 30.01 in 10.0 mi SW 8.1 mph - N/A   Clear
6:35 PM 44.6 °F 39.7 °F 37.4 °F 76% 30.03 in 10.0 mi SSW 9.2 mph - N/A   Clear
6:55 PM 44.6 °F 39.2 °F 37.4 °F 76% 30.03 in 10.0 mi SW 10.4 mph - N/A   Clear
7:15 PM 46.4 °F 41.5 °F 37.4 °F 71% 30.03 in 10.0 mi SW 10.4 mph - N/A   Clear
7:35 PM 46.4 °F 41.5 °F 37.4 °F 71% 30.04 in 10.0 mi SW 10.4 mph - N/A   Clear
7:55 PM 46.4 °F 41.5 °F 35.6 °F 66% 30.05 in 10.0 mi SW 10.4 mph - N/A   Clear
8:15 PM 42.8 °F 38.0 °F 35.6 °F 76% 30.05 in 10.0 mi SW 8.1 mph - N/A   Clear
8:35 PM 41.0 °F 36.4 °F 35.6 °F 81% 30.05 in 10.0 mi SW 6.9 mph - N/A   Clear
8:55 PM 42.8 °F 38.6 °F 35.6 °F 76% 30.05 in 10.0 mi SW 6.9 mph - N/A   Clear
9:15 PM 44.6 °F 40.7 °F 33.8 °F 66% 30.05 in 10.0 mi SW 6.9 mph - N/A   Clear
9:35 PM 42.8 °F 38.0 °F 33.8 °F 70% 30.06 in 10.0 mi SW 8.1 mph - N/A   Clear
9:55 PM 42.8 °F 38.6 °F 33.8 °F 70% 30.06 in 10.0 mi SW 6.9 mph - N/A   Clear
10:15 PM 42.8 °F 38.0 °F 33.8 °F 70% 30.07 in 10.0 mi WSW 8.1 mph - N/A   Clear
10:35 PM 42.8 °F 38.6 °F 33.8 °F 70% 30.08 in 10.0 mi WSW 6.9 mph - N/A   Clear
10:55 PM 42.8 °F 39.3 °F 33.8 °F 70% 30.09 in 10.0 mi WSW 5.8 mph - N/A   Clear
11:15 PM 37.4 °F 34.9 °F 32.0 °F 81% 30.09 in 10.0 mi WSW 3.5 mph - N/A   Clear
11:35 PM 39.2 °F - 32.0 °F 75% 30.09 in 10.0 mi Calm Calm - N/A   Clear
11:55 PM 39.2 °F - 33.8 °F 81% 30.09 in 10.0 mi Calm Calm - N/A   Clear